Location: ?
(35.3436°N, 139.3168°E)
Time: 21:42:08
(UTC+00:00)

Meteor 1-31 Rocket - Pass Details

Date: 29 October 2020
Orbit: 521 x 546 km, 97.6° (Epoch: 24 November)

Event Time Altitude Azimuth Distance (km) Brightness Sun altitude
Rises 20:03:14 0° 360° (N) 2,718 6.3 -12.6°
Reaches altitude 10° 20:05:32 10° 350° (N) 1,820 5.3 -12.1°
Maximum altitude 20:09:00 31° 288° (WNW) 976 3.5 -11.4°
Drops below altitude 10° 20:12:27 10° 225° (SW) 1,802 5.1 -10.7°
Sets 20:14:43 0° 215° (SW) 2,686 6.1 -10.3°
